Terminal Aerodrome Forecast
Issued by NWS Jackson, KY

Home | Current Version | Previous Version | Text Only | Print | Product List | Glossary On
Versions: 1 2 3 4 5 6 7 8 9 10 11 12 13 14
000
FTUS43 KJKL 051121
TAFJKL
TAF
KJKL 051121Z 0512/0612 00000KT 3SM BR SKC
     FM051300 VRB03KT P6SM SKC
     FM051800 VRB03KT P6SM VCTS SCT045CB BKN200
     FM060800 00000KT 4SM BR SKC=

USA.gov is the U.S. government's official web portal to all federal, state and local government web resources and services.